• In Kazakhstan
  • List of Countries
  • For 7 days
  • Water Temperature
  • Satellite Maps
  • Weather Map
  • News
  • Weather Widgets
  • user-avatar
    Login

    Hourly Weather Sidi Bu-l-Abbas

    Today, 21 March, Thursday

    Time Temperature Precipitation Wind Pressure Humidity
    00:00 +5°C° 0 mm 1 mps 725 mmHg 89%
    01:00 +4°C° 0 mm 0 mps 724 mmHg 90%
    02:00 +4°C° 0 mm 0 mps 724 mmHg 91%
    03:00 +3°C° 0 mm 0 mps 724 mmHg 91%
    04:00 +3°C° 0 mm 0 mps 724 mmHg 91%
    05:00 +3°C° 0 mm 0 mps 724 mmHg 91%
    06:00 +3°C° 0 mm 0 mps 724 mmHg 92%
    07:00 +6°C° 0 mm 1 mps 724 mmHg 85%
    08:00 +7°C° 0 mm 1 mps 725 mmHg 79%
    09:00 +9°C° 0 mm 1 mps 725 mmHg 73%
    10:00 +9°C° 0 mm 2 mps 725 mmHg 69%
    11:00 +10°C° 0 mm 2 mps 725 mmHg 66%
    12:00 +11°C° 0 mm 3 mps 725 mmHg 63%
    13:00 +11°C° 0.2 mm 4 mps 725 mmHg 64%
    14:00 +11°C° 0.2 mm 4 mps 724 mmHg 64%
    15:00 +12°C° 0.2 mm 5 mps 724 mmHg 65%
    16:00 +10°C° 0.2 mm 5 mps 724 mmHg 70%
    17:00 +10°C° 0.2 mm 5 mps 724 mmHg 74%
    18:00 +10°C° 0.2 mm 4 mps 724 mmHg 78%
    19:00 +9°C° 0 mm 3 mps 724 mmHg 83%
    20:00 +8°C° 0 mm 2 mps 724 mmHg 87%
    21:00 +8°C° 0 mm 1 mps 725 mmHg 92%
    22:00 +8°C° 0 mm 1 mps 725 mmHg 91%
    23:00 +9°C° 0 mm 1 mps 725 mmHg 91%

    Tomorrow, 22 March, Friday

    Time Temperature Precipitation Wind Pressure Humidity
    00:00 +9°C° 0 mm 1 mps 725 mmHg 90%
    01:00 +9°C° 0.1 mm 1 mps 725 mmHg 91%
    02:00 +9°C° 0.1 mm 1 mps 724 mmHg 91%
    03:00 +8°C° 0.1 mm 0 mps 724 mmHg 91%
    04:00 +8°C° 0.1 mm 0 mps 724 mmHg 92%
    05:00 +8°C° 0.1 mm 0 mps 724 mmHg 93%
    06:00 +8°C° 0.1 mm 0 mps 724 mmHg 93%
    07:00 +10°C° 0 mm 1 mps 725 mmHg 89%
    08:00 +10°C° 0 mm 2 mps 725 mmHg 84%
    09:00 +12°C° 0 mm 2 mps 725 mmHg 80%
    10:00 +12°C° 0.1 mm 2 mps 725 mmHg 76%
    11:00 +12°C° 0.1 mm 3 mps 725 mmHg 73%
    12:00 +13°C° 0.1 mm 3 mps 725 mmHg 70%
    13:00 +13°C° 0.2 mm 3 mps 725 mmHg 68%
    14:00 +14°C° 0.2 mm 3 mps 724 mmHg 66%
    15:00 +14°C° 0.2 mm 4 mps 724 mmHg 63%
    16:00 +13°C° 0.1 mm 4 mps 724 mmHg 69%
    17:00 +13°C° 0.1 mm 4 mps 724 mmHg 74%
    18:00 +12°C° 0.1 mm 4 mps 724 mmHg 79%
    19:00 +11°C° 0 mm 3 mps 724 mmHg 84%
    20:00 +10°C° 0 mm 2 mps 725 mmHg 90%
    21:00 +9°C° 0 mm 1 mps 725 mmHg 95%
    22:00 +9°C° 0 mm 1 mps 725 mmHg 95%
    23:00 +9°C° 0 mm 1 mps 725 mmHg 94%

    Day after tomorrow, 23 March, Saturday

    Time Temperature Precipitation Wind Pressure Humidity
    00:00 +8°C° 0 mm 0 mps 725 mmHg 94%
    01:00 +8°C° 0 mm 0 mps 724 mmHg 94%
    02:00 +7°C° 0 mm 0 mps 724 mmHg 95%
    03:00 +6°C° 0 mm 0 mps 723 mmHg 95%
    04:00 +6°C° 0 mm 0 mps 723 mmHg 95%
    05:00 +7°C° 0 mm 1 mps 723 mmHg 95%
    06:00 +7°C° 0 mm 1 mps 723 mmHg 96%
    07:00 +9°C° 0 mm 1 mps 723 mmHg 87%
    08:00 +10°C° 0 mm 2 mps 724 mmHg 79%
    09:00 +12°C° 0 mm 3 mps 724 mmHg 70%
    10:00 +13°C° 0 mm 3 mps 724 mmHg 63%
    11:00 +16°C° 0 mm 3 mps 724 mmHg 56%
    12:00 +17°C° 0 mm 3 mps 724 mmHg 49%
    13:00 +18°C° 0 mm 3 mps 723 mmHg 45%
    14:00 +19°C° 0 mm 4 mps 722 mmHg 42%
    15:00 +20°C° 0 mm 4 mps 722 mmHg 38%
    16:00 +19°C° 0 mm 5 mps 721 mmHg 44%
    17:00 +16°C° 0 mm 5 mps 721 mmHg 51%
    18:00 +15°C° 0 mm 6 mps 720 mmHg 57%
    19:00 +14°C° 0 mm 5 mps 721 mmHg 64%
    20:00 +12°C° 0 mm 4 mps 721 mmHg 71%
    21:00 +11°C° 0 mm 3 mps 721 mmHg 78%
    22:00 +11°C° 0 mm 3 mps 721 mmHg 74%
    23:00 +12°C° 0 mm 2 mps 720 mmHg 70%

    24 March, Sunday

    Time Temperature Precipitation Wind Pressure Humidity
    00:00 +12°C° 0 mm 2 mps 720 mmHg 66%
    01:00 +13°C° 0.1 mm 2 mps 720 mmHg 62%
    02:00 +13°C° 0.1 mm 2 mps 720 mmHg 58%
    03:00 +13°C° 0.1 mm 2 mps 719 mmHg 54%
    04:00 +13°C° 0 mm 2 mps 719 mmHg 57%
    05:00 +13°C° 0 mm 2 mps 719 mmHg 59%
    06:00 +13°C° 0 mm 2 mps 719 mmHg 61%
    07:00 +14°C° 0.3 mm 2 mps 720 mmHg 62%
    08:00 +13°C° 0.3 mm 3 mps 720 mmHg 63%
    09:00 +14°C° 0.3 mm 4 mps 720 mmHg 64%
    10:00 +14°C° 1.5 mm 4 mps 720 mmHg 64%
    11:00 +14°C° 1.5 mm 5 mps 720 mmHg 64%
    12:00 +14°C° 1.5 mm 5 mps 720 mmHg 63%
    13:00 +15°C° 0.2 mm 5 mps 720 mmHg 60%
    14:00 +16°C° 0.2 mm 5 mps 719 mmHg 57%
    15:00 +17°C° 0.2 mm 5 mps 719 mmHg 53%
    16:00 +17°C° 0.4 mm 4 mps 719 mmHg 59%
    17:00 +16°C° 0.4 mm 3 mps 719 mmHg 65%
    18:00 +15°C° 0.4 mm 2 mps 719 mmHg 71%
    19:00 +14°C° 0.9 mm 2 mps 719 mmHg 75%
    20:00 +14°C° 0.9 mm 2 mps 720 mmHg 79%
    21:00 +12°C° 0.9 mm 3 mps 720 mmHg 83%
    22:00 +12°C° 0.7 mm 3 mps 720 mmHg 83%
    23:00 +12°C° 0.7 mm 3 mps 720 mmHg 82%

    25 March, Monday

    Time Temperature Precipitation Wind Pressure Humidity
    00:00 +12°C° 0.7 mm 4 mps 719 mmHg 81%
    01:00 +12°C° 0 mm 4 mps 719 mmHg 79%
    02:00 +12°C° 0 mm 4 mps 719 mmHg 77%
    03:00 +12°C° 0 mm 4 mps 719 mmHg 74%
    04:00 +12°C° 0 mm 3 mps 719 mmHg 74%
    05:00 +12°C° 0 mm 3 mps 719 mmHg 74%
    06:00 +12°C° 0 mm 3 mps 719 mmHg 73%
    07:00 +13°C° 0 mm 3 mps 719 mmHg 69%
    08:00 +14°C° 0 mm 3 mps 720 mmHg 65%
    09:00 +17°C° 0 mm 3 mps 720 mmHg 60%
    10:00 +18°C° 0 mm 3 mps 720 mmHg 55%
    11:00 +19°C° 0 mm 2 mps 720 mmHg 50%
    12:00 +21°C° 0 mm 1 mps 720 mmHg 45%
    13:00 +21°C° 0 mm 2 mps 719 mmHg 45%
    14:00 +21°C° 0 mm 3 mps 719 mmHg 44%
    15:00 +22°C° 0 mm 3 mps 718 mmHg 43%
    16:00 +20°C° 0.2 mm 3 mps 718 mmHg 52%
    17:00 +19°C° 0.2 mm 4 mps 718 mmHg 61%
    18:00 +17°C° 0.2 mm 4 mps 718 mmHg 70%
    19:00 +16°C° 0.1 mm 3 mps 718 mmHg 75%
    20:00 +14°C° 0.1 mm 3 mps 718 mmHg 79%
    21:00 +14°C° 0.1 mm 2 mps 718 mmHg 84%
    22:00 +14°C° 0.3 mm 2 mps 718 mmHg 85%
    23:00 +14°C° 0.3 mm 2 mps 718 mmHg 85%

    26 March, Tuesday

    Time Temperature Precipitation Wind Pressure Humidity
    00:00 +14°C° 0.3 mm 2 mps 718 mmHg 86%
    01:00 +13°C° 0 mm 3 mps 718 mmHg 84%
    02:00 +13°C° 0 mm 3 mps 718 mmHg 82%
    03:00 +13°C° 0 mm 3 mps 717 mmHg 80%
    04:00 +13°C° 0 mm 3 mps 717 mmHg 77%
    05:00 +13°C° 0 mm 3 mps 717 mmHg 74%
    06:00 +13°C° 0 mm 3 mps 717 mmHg 71%
    07:00 +16°C° 0 mm 3 mps 718 mmHg 64%
    08:00 +17°C° 0 mm 4 mps 718 mmHg 58%
    09:00 +19°C° 0 mm 5 mps 718 mmHg 51%
    10:00 +21°C° 0 mm 6 mps 718 mmHg 45%
    11:00 +23°C° 0 mm 6 mps 718 mmHg 39%
    12:00 +26°C° 0 mm 6 mps 718 mmHg 32%
    13:00 +26°C° 0 mm 6 mps 717 mmHg 31%
    14:00 +27°C° 0 mm 5 mps 717 mmHg 29%
    15:00 +27°C° 0 mm 5 mps 716 mmHg 27%
    16:00 +26°C° 0 mm 5 mps 716 mmHg 32%
    17:00 +23°C° 0 mm 4 mps 716 mmHg 36%
    18:00 +22°C° 0 mm 4 mps 716 mmHg 41%
    19:00 +21°C° 0 mm 4 mps 716 mmHg 42%
    20:00 +20°C° 0 mm 4 mps 716 mmHg 43%
    21:00 +19°C° 0 mm 4 mps 716 mmHg 43%
    22:00 +19°C° 0 mm 4 mps 716 mmHg 45%
    23:00 +18°C° 0 mm 4 mps 716 mmHg 47%
    Show more